Lid_Strength_Index
-1 -1 -0 2 7 6 8 8 5 7 6 4 4 5 5 5 6 9 0 -0 -1 -1 -1 -1 -1 -1 -1 -1 -1 -1 -1 -1 -1 -1 -1 -1 -1 -1 -1 -1 -1 -1 -2 -2 -2 -2 -2 -2 -1
-1 -0 1 4 8 10 9 6 7 6 5 3 3 4 5 6 3 2 2 -0 -1 -1 -1 -1 -1 -1 -1 -1 -1 -1 -1 -1 -1 -1 -1 -1 -1 -1 -1 -2 -2 -2 -2 -2 -2 -2 -2 -2 -2
-0 0 4 6 7 10 9 6 5 4 3 4 5 3 5 5 2 2 -0 -0 -1 -1 -1 -2 -1 -1 -1 -1 -1 -1 -1 -1 -1 -1 -1 -1 -1 -1 -1 -1 -2 -2 -2 -2 -2 -2 -2 -2 -2
1 2 3 7 9 7 7 5 4 5 4 3 4 6 3 1 2 1 -0 -0 -0 -0 -1 -1 -1 -1 -1 -1 -1 -1 -1 -1 -1 -1 -1 -1 -1 -1 -1 -1 -1 -2 -2 -2 -2 -2 -2 -2 -2
1 3 6 8 8 6 5 4 4 5 5 4 4 6 5 2 0 -0 -0 -0 -0 -1 -1 -1 -1 -1 -1 -1 -1 -1 -1 -1 -1 -1 -1 -1 -1 -1 -1 -1 -1 -2 -2 -2 -2 -2 -2 -2 -2
4 4 12 9 8 6 5 4 4 5 5 5 5 5 5 1 1 0 -0 -0 -1 -1 -1 -1 -2 -1 -1 -1 -1 -1 -1 -1 -1 -1 -1 -1 -1 -1 -1 -1 -2 -2 -2 -2 -2 -1 -1 -1 -1
4 6 8 8 8 8 6 4 5 6 5 5 4 6 4 2 1 -0 -0 -1 -1 -1 -1 -1 -1 -1 -1 -1 -1 -1 -1 -1 -1 -1 -1 -1 -1 -1 -2 -2 -2 -2 -2 -2 -2 -2 -1 -1 -1
3 6 7 7 9 8 5 5 4 5 5 3 3 9 6 2 1 0 -0 -0 -1 -0 1 0 -2 -1 -2 -1 -2 -1 -1 -1 -1 -1 -2 -1 -2 -3 -2 -4 -3 -2 -2 -2 -2 -2 -2 -2 -2
2 7 9 8 9 7 5 6 4 3 4 4 3 3 2 1 0 1 1 0 1 1 -0 -1 -1 -1 -1 -1 -1 -2 -2 -2 -2 -3 -3 -3 -2 -2 -2 -2 -2 -2 -2 -2 -2 -2 -2 -2 -2
4 7 7 5 5 6 5 5 5 5 5 5 5 3 2 1 1 2 1 1 1 0 -0 -1 -1 -1 -1 -1 -2 -2 -2 -2 -2 -2 -2 -2 -2 -2 -2 -3 -1 -2 -2 -3 -3 -3 -4 -3 -1
4 7 5 5 4 4 5 5 4 6 7 5 5 4 2 2 2 2 1 1 1 0 -0 -1 -1 -2 -1 -1 -1 -2 -2 -2 -2 -2 -3 -2 -2 -2 -2 -1 -2 -2 -3 -2 -2 -2 -2 -1 -1
6 5 4 4 4 5 5 4 6 5 5 3 3 3 2 2 2 2 1 1 1 0 -0 -1 -1 -1 -2 -2 -1 -1 -1 -2 -1 -2 -2 -2 -1 -2 -2 -1 -2 -2 -2 -2 -2 -1 -2 -2 -2
5 5 4 4 4 4 4 5 6 6 4 3 3 3 3 2 2 1 1 1 0 1 -0 -1 -1 -1 -2 -2 -1 -1 -1 -1 -2 -2 -2 -2 -1 -1 -1 -1 -1 -2 -1 -1 -1 -1 -1 -1 -1
4 5 5 4 4 4 6 6 5 5 3 4 3 3 3 2 2 1 1 1 1 0 -0 -1 -1 -2 -2 -1 -2 -1 -2 -2 -2 -2 -2 -2 -2 -2 -1 -1 -1 -1 -1 -1 -1 -1 -1 -1 -1
4 6 6 5 5 5 4 7 7 4 4 4 4 3 3 2 2 2 1 1 0 0 -1 -1 -1 -2 -2 -2 -2 -2 -2 -2 -1 -2 -2 -2 -2 -2 -2 -1 -1 -1 -2 -2 -1 -1 -1 -1 -1
6 7 13 6 5 5 5 10 6 4 4 5 4 4 3 3 2 1 1 1 -0 -0 -0 -1 -1 -1 -1 -2 -2 -1 -2 -2 -2 -2 -2 -2 -2 -2 -2 -1 -1 -2 -2 -1 -1 -1 -0 -0 -0
7 10 8 8 5 6 6 8 6 4 4 5 4 4 4 3 2 1 1 1 0 -0 -0 -1 -1 -1 -1 -2 -2 -2 -2 -2 -2 -2 -2 -2 -2 -2 -2 -1 -1 -2 -1 -1 -1 -0 -0 0 0
9 8 7 8 6 6 7 8 6 5 5 5 4 4 4 3 3 1 1 1 0 -0 -1 -1 -1 -1 -1 -1 -2 -1 -1 -1 -2 -1 -2 -2 -1 -2 -2 -1 -2 -1 -1 -0 -0 -0 -0 0 0
6 7 8 7 6 7 7 7 6 5 5 5 5 4 4 3 2 1 1 1 0 1 -0 -1 -0 -1 -1 -0 0 -0 0 -0 -1 -1 -2 -2 -2 -2 -2 -1 -1 -1 -1 -1 -1 -0 0 1 -0
6 7 8 7 6 7 7 8 6 6 5 5 5 4 4 3 3 2 1 1 1 1 0 -0 -1 -1 -1 -1 -1 -1 -1 -1 -1 -1 -2 -2 -2 -2 -1 -1 -1 -1 -0 -1 -0 0 1 0 -0
6 7 7 8 7 6 7 8 8 6 5 4 4 4 3 4 4 3 2 1 1 1 1 0 -0 -1 -1 -1 -1 -1 -1 -1 -0 -0 -1 -1 -2 -1 -2 -1 -1 -1 -1 0 0 -0 1 2 1
11 6 6 7 8 10 7 10 9 7 7 6 5 4 4 3 3 3 2 2 1 1 0 -0 0 -0 -1 -1 -1 -0 1 1 0 -0 -1 -1 -2 -1 -1 -1 -1 -1 -1 -0 0 0 0 1 2
7 5 6 7 8 9 9 9 10 7 8 7 5 4 4 3 3 3 2 1 1 0 0 -0 -0 -0 -1 -1 -1 0 0 0 -0 -0 -1 -2 -2 -2 -1 -1 -1 -1 -0 -0 -0 -0 0 0 1
5 6 7 7 10 13 10 9 10 9 7 6 5 4 3 3 3 2 1 1 1 0 0 -0 0 -0 -0 -0 -0 -0 -0 0 1 0 0 -0 -1 -1 -1 -1 -1 -1 -1 -1 -0 -1 -0 -0 0
6 8 14 13 16 13 8 9 8 6 5 5 5 4 4 3 3 3 3 2 1 1 1 0 0 0 -0 -0 -0 -0 -0 -0 -0 -0 0 0 0 -0 -1 -1 -1 -0 -1 -1 -1 -1 -0 -0 1
7 7 11 14 13 11 10 10 8 5 4 4 4 3 3 3 3 3 3 2 2 1 1 1 0 1 -0 -0 -0 -1 -1 -0 -0 -1 -0 -0 -0 -0 -2 -1 -1 -1 -1 -1 -1 -0 -0 -0 -0
8 9 6 9 9 12 11 8 6 5 5 5 5 4 4 3 3 3 2 2 1 1 1 0 1 0 0 0 -1 -1 -1 -1 -0 -1 -1 -0 -1 -1 -1 -1 -1 -1 -1 -1 -1 0 -0 -1 -0
6 5 9 9 13 13 11 10 10 7 6 5 5 5 4 3 3 2 2 2 1 1 1 0 1 0 -0 -0 -0 -1 -1 -1 -1 -1 -1 -1 -1 -1 -1 -1 -1 -1 -1 -1 -1 -0 -0 -0 -0
7 8 10 8 9 12 14 10 6 6 5 6 5 4 4 3 3 3 2 2 1 1 1 0 1 1 1 -0 -0 -0 -0 -1 -1 -1 -1 -1 -1 -1 -1 -1 -1 -1 -1 -1 -1 -1 -0 0 0
5 6 7 10 10 9 9 10 5 5 5 5 4 4 3 3 3 2 2 2 1 1 1 1 1 2 2 1 -0 -0 -1 -1 -1 -1 -1 -1 -0 -1 -0 -1 -1 -1 -0 -1 -0 0 0 0 1